Regional Weather Roundup
Issued by NWS

Home | Current Version | Previous Version | Text Only | Print | Product List | Glossary Off
Versions: 1 2 3 4 5 6 7 8 9 10 11 12 13 14 15 16 17 18 19 20 21 22 23 24 25 26 27 28 29 30 31 32 33 34 35 36 37 38 39 40 41 42 43 44 45 46 47 48 49 50

000
ASUS43 KLSX 242307
RWRMO

WEATHER SUMMARY FOR MISSOURI
NATIONAL WEATHER SERVICE SPRINGFIELD MO
600 PM CDT TUE MAY 24 2016

NOTE: "FAIR" INDICATES FEW OR NO CLOUDS BELOW 12,000 FEET WITH NO
       SIGNIFICANT WEATHER AND/OR OBSTRUCTIONS TO VISIBILITY.
       CURRENT SKY AND/OR WEATHER CONDITIONS ARE NOT AVAILABLE FOR
       CHILLICOTHE AND FARMINGTON.

MOZ001>031-035>038-043-044-053-054-250000-
...NORTHERN AND WESTERN MISSOURI...

CITY           SKY/WX    TMP DP  RH WIND       PRES   REMARKS
KANSAS CTY INT MOSUNNY   79  67  66 S8        29.90R
KANSAS C DTWN  SUNNY     80  65  59 S7        29.89R
LEE`S SUMMIT   SUNNY     79  63  57 S9        29.91R
ST JOSEPH      SUNNY     80  63  55 S5        29.89R
CHILLICOTHE      N/A     77  67  71 S6        29.92R
KIRKSVILLE     CLOUDY    76  66  71 S8        29.95R

$$
MOZ066>068-077>081-088>096-101>105-250000-
...SOUTHWEST MISSOURI...

CITY           SKY/WX    TMP DP  RH WIND       PRES   REMARKS
SPRINGFIELD    CLOUDY    67  60  78 SE17      29.98R
JOPLIN         CLOUDY    80  70  71 S13       29.92S
BRANSON        PTSUNNY   63  63 100 SE12      30.04R

$$
MOZ032>034-039>042-045>050-055>058-069>072-250000-
...CENTRAL MISSOURI...

CITY           SKY/WX    TMP DP  RH WIND       PRES   REMARKS
COLUMBIA       CLOUDY    70  65  84 E8        29.95R
JEFFERSON CITY CLOUDY    70  64  81 SE3       29.96R
ROLLA          CLOUDY    65  63  93 S14G24    29.95R
SEDALIA        CLOUDY    78  63  59 SW9       29.95R
WHITEMAN AFB   MOSUNNY   77  66  67 SW14      29.92R
WARRENSBURG    CLOUDY    77  63  61 S12       29.92R

$$
MOZ051-052-059>065-250000-
...EAST CENTRAL MISSOURI...

CITY           SKY/WX    TMP DP  RH WIND       PRES   REMARKS
ST LOUIS INTL  CLOUDY    74  60  61 S8G18     29.95F
SPIRIT OF STL  CLOUDY    71  63  75 SW7       29.95F
ST CHARLES     CLOUDY    75  62  64 S9        29.94F

$$
MOZ072>076-082>087-097>100-106>115-250000-
...SOUTH CENTRAL AND SOUTHEAST MISSOURI...

CITY           SKY/WX    TMP DP  RH WIND       PRES   REMARKS
CAPE GIRARDEAU LGT RAIN  70  65  84 W8        30.08R
FARMINGTON     CLOUDY    66  63  90 NW7       30.00F
POPLAR BLUFF   RAIN      67  65  93 CALM      30.08F FOG
WEST PLAINS    CLOUDY    64  60  87 S6        30.05R

$$


USA.gov is the U.S. government's official web portal to all federal, state and local government web resources and services.